Time,TemperatureF,DewpointF,PressureIn,WindDirection,WindDirectionDegrees,WindSpeedMPH,WindSpeedGustMPH,Humidity,HourlyPrecipIn,Conditions,Clouds,dailyrainin,SolarRadiationWatts/m^2,SoftwareType,DateUTC
2013-01-28 00:22:00,26.0,25.0,-100.00,ENE,76,5.0,8.0,96,0.00,,,-99.99,0.000000,,2013-01-28 07:22:00,
2013-01-28 00:32:00,26.0,25.0,-100.00,ENE,77,5.0,8.0,96,0.00,,,-99.99,0.000000,,2013-01-28 07:32:00,
2013-01-28 00:42:00,25.0,24.0,-100.00,East,84,6.0,8.0,96,0.00,,,-99.99,0.000000,,2013-01-28 07:42:00,
2013-01-28 00:52:00,25.0,25.0,-100.00,East,94,7.0,9.0,96,0.00,,,-99.99,0.000000,,2013-01-28 07:52:00,
2013-01-28 01:01:00,25.0,24.0,-100.00,East,85,7.0,9.0,96,0.00,,,-99.99,0.000000,,2013-01-28 08:01:00,
2013-01-28 01:11:00,25.0,24.0,-100.00,ENE,74,6.0,9.0,96,0.00,,,-99.99,0.000000,,2013-01-28 08:11:00,
2013-01-28 01:21:00,26.0,25.0,-100.00,NE,41,4.0,7.0,96,0.00,,,-99.99,0.000000,,2013-01-28 08:21:00,
2013-01-28 01:31:00,25.0,24.0,-100.00,NE,49,3.0,4.0,96,0.00,,,-99.99,0.000000,,2013-01-28 08:31:00,
2013-01-28 01:42:00,25.0,24.0,-100.00,NE,55,2.0,4.0,96,0.00,,,-99.99,0.000000,,2013-01-28 08:42:00,
2013-01-28 01:52:00,25.0,24.0,-100.00,East,95,3.0,4.0,96,0.00,,,-99.99,0.000000,,2013-01-28 08:52:00,
2013-01-28 02:01:00,25.0,24.0,-100.00,ESE,109,4.0,4.0,96,0.00,,,-99.99,0.000000,,2013-01-28 09:01:00,
2013-01-28 02:11:00,25.0,24.0,-100.00,East,84,3.0,4.0,96,0.00,,,-99.99,0.000000,,2013-01-28 09:11:00,
2013-01-28 02:21:00,25.0,24.0,-100.00,East,95,3.0,4.0,96,0.00,,,-99.99,0.000000,,2013-01-28 09:21:00,
2013-01-28 02:31:00,25.0,24.0,-100.00,East,96,3.0,4.0,96,0.00,,,-99.99,0.000000,,2013-01-28 09:31:00,
2013-01-28 02:41:00,25.0,24.0,-100.00,East,88,3.0,6.0,95,0.00,,,-99.99,0.000000,,2013-01-28 09:41:00,
2013-01-28 02:51:00,25.0,24.0,-100.00,East,88,3.0,6.0,95,0.00,,,-99.99,0.000000,,2013-01-28 09:51:00,
2013-01-28 03:01:00,25.0,24.0,-100.00,East,79,4.0,6.0,96,0.00,,,-99.99,0.000000,,2013-01-28 10:01:00,
2013-01-28 03:11:00,25.0,24.0,-100.00,ENE,69,4.0,5.0,96,0.00,,,-99.99,0.000000,,2013-01-28 10:11:00,
2013-01-28 03:21:00,25.0,24.0,-100.00,ENE,69,4.0,5.0,96,0.00,,,-99.99,0.000000,,2013-01-28 10:21:00,
2013-01-28 03:31:00,25.0,24.0,-100.00,ENE,67,1.0,3.0,96,0.00,,,-99.99,0.000000,,2013-01-28 10:31:00,
2013-01-28 03:41:00,24.0,23.0,-100.00,ESE,104,2.0,3.0,96,0.00,,,-99.99,0.000000,,2013-01-28 10:41:00,
2013-01-28 03:50:00,25.0,23.0,-100.00,ESE,114,4.0,5.0,95,0.00,,,-99.99,0.000000,,2013-01-28 10:50:00,
2013-01-28 03:51:00,25.0,24.0,-100.00,ENE,66,2.0,3.0,96,0.00,,,-99.99,0.000000,,2013-01-28 10:51:00,
2013-01-28 04:02:00,25.0,24.0,-100.00,East,92,1.0,3.0,96,0.00,,,-99.99,0.000000,,2013-01-28 11:02:00,
2013-01-28 04:11:00,25.0,23.0,-100.00,ESE,114,4.0,5.0,95,0.00,,,-99.99,0.000000,,2013-01-28 11:11:00,
2013-01-28 04:21:00,25.0,23.0,-100.00,ESE,114,4.0,5.0,95,0.00,,,-99.99,0.000000,,2013-01-28 11:21:00,
2013-01-28 04:32:00,25.0,23.0,-100.00,ESE,114,4.0,5.0,95,0.00,,,-99.99,0.000000,,2013-01-28 11:32:00,
2013-01-28 04:42:00,25.0,23.0,-100.00,ESE,114,4.0,5.0,95,0.00,,,-99.99,0.000000,,2013-01-28 11:42:00,
2013-01-28 05:23:00,24.0,23.0,-100.00,East,88,2.0,4.0,95,0.00,,,-99.99,0.000000,,2013-01-28 12:23:00,
2013-01-28 05:33:00,24.0,23.0,-100.00,SE,142,3.0,4.0,95,0.00,,,-99.99,0.000000,,2013-01-28 12:33:00,
2013-01-28 05:42:00,24.0,23.0,-100.00,SSW,195,2.0,3.0,95,0.00,,,-99.99,0.000000,,2013-01-28 12:42:00,
2013-01-28 05:52:00,24.0,22.0,-100.00,ESE,116,4.0,7.0,95,0.00,,,-99.99,0.000000,,2013-01-28 12:52:00,
2013-01-28 06:02:00,24.0,22.0,-100.00,East,93,3.0,5.0,95,0.00,,,-99.99,0.000000,,2013-01-28 13:02:00,
2013-01-28 06:11:00,23.0,22.0,-100.00,NE,52,3.0,7.0,95,0.00,,,-99.99,0.000000,,2013-01-28 13:11:00,
2013-01-28 06:22:00,23.0,22.0,-100.00,NE,54,2.0,3.0,95,0.00,,,-99.99,0.000000,,2013-01-28 13:22:00,
2013-01-28 06:32:00,23.0,22.0,-100.00,East,86,2.0,4.0,95,0.00,,,-99.99,0.000000,,2013-01-28 13:32:00,
2013-01-28 06:42:00,23.0,22.0,-100.00,ESE,114,3.0,4.0,95,0.00,,,-99.99,0.000000,,2013-01-28 13:42:00,
2013-01-28 06:52:00,23.0,22.0,-100.00,ESE,114,3.0,4.0,95,0.00,,,-99.99,0.000000,,2013-01-28 13:52:00,
2013-01-28 07:02:00,23.0,22.0,-100.00,SSE,154,2.0,4.0,95,0.00,,,-99.99,0.000000,,2013-01-28 14:02:00,
2013-01-28 07:11:00,23.0,22.0,-100.00,SSE,160,3.0,4.0,95,0.00,,,-99.99,0.000000,,2013-01-28 14:11:00,
2013-01-28 07:21:00,23.0,21.0,-100.00,SE,146,2.0,4.0,95,0.00,,,-99.99,0.000000,,2013-01-28 14:21:00,
2013-01-28 07:32:00,23.0,22.0,-100.00,SSE,149,1.0,2.0,95,0.00,,,-99.99,0.000000,,2013-01-28 14:32:00,
2013-01-28 07:42:00,23.0,21.0,-100.00,South,174,2.0,3.0,95,0.00,,,-99.99,0.000000,,2013-01-28 14:42:00,
2013-01-28 07:52:00,23.0,21.0,-100.00,South,174,2.0,3.0,95,0.00,,,-99.99,0.000000,,2013-01-28 14:52:00,
2013-01-28 08:02:00,23.0,22.0,-100.00,SSW,193,3.0,4.0,95,0.00,,,-99.99,1.000000,,2013-01-28 15:02:00,
2013-01-28 08:11:00,23.0,22.0,-100.00,South,185,2.0,4.0,95,0.00,,,-99.99,2.000000,,2013-01-28 15:11:00,
2013-01-28 08:22:00,23.0,21.0,-100.00,SSW,199,2.0,3.0,95,0.00,,,-99.99,3.000000,,2013-01-28 15:22:00,
2013-01-28 08:32:00,23.0,22.0,-100.00,South,189,2.0,4.0,95,0.00,,,-99.99,6.000000,,2013-01-28 15:32:00,
2013-01-28 08:42:00,23.0,22.0,-100.00,South,174,2.0,3.0,95,0.00,,,-99.99,8.000000,,2013-01-28 15:42:00,
2013-01-28 08:50:00,23.0,22.0,-100.00,SSE,154,3.0,6.0,95,0.00,,,-99.99,17.000000,,2013-01-28 15:50:00,
2013-01-28 08:52:00,23.0,22.0,-100.00,South,174,2.0,3.0,95,0.00,,,-99.99,8.000000,,2013-01-28 15:52:00,
2013-01-28 09:02:00,23.0,22.0,-100.00,SSE,167,2.0,4.0,95,0.00,,,-99.99,14.000000,,2013-01-28 16:02:00,
2013-01-28 09:11:00,23.0,22.0,-100.00,SSE,154,3.0,6.0,95,0.00,,,-99.99,17.000000,,2013-01-28 16:11:00,
2013-01-28 09:21:00,23.0,22.0,-100.00,SSE,154,3.0,6.0,95,0.00,,,-99.99,17.000000,,2013-01-28 16:21:00,
2013-01-28 09:32:00,23.0,22.0,-100.00,SSE,154,3.0,6.0,95,0.00,,,-99.99,17.000000,,2013-01-28 16:32:00,
2013-01-28 09:42:00,23.0,22.0,-100.00,SSE,154,3.0,6.0,95,0.00,,,-99.99,17.000000,,2013-01-28 16:42:00,
2013-01-28 10:23:00,25.0,23.0,-100.00,East,101,2.0,3.0,94,0.00,,,-99.99,32.000000,,2013-01-28 17:23:00,
2013-01-28 10:33:00,23.0,22.0,-100.00,East,99,3.0,5.0,93,0.00,,,-99.99,28.000000,,2013-01-28 17:33:00,
2013-01-28 10:42:00,23.0,21.0,-100.00,ESE,106,3.0,4.0,93,0.00,,,-99.99,29.000000,,2013-01-28 17:42:00,
2013-01-28 10:52:00,23.0,21.0,-100.00,ESE,106,3.0,4.0,93,0.00,,,-99.99,29.000000,,2013-01-28 17:52:00,
2013-01-28 11:01:00,23.0,21.0,-100.00,ESE,109,4.0,5.0,94,0.00,,,-99.99,83.000000,,2013-01-28 18:01:00,
2013-01-28 11:11:00,24.0,22.0,-100.00,ESE,109,4.0,5.0,93,0.00,,,-99.99,37.000000,,2013-01-28 18:11:00,
2013-01-28 11:22:00,23.0,20.0,-100.00,ESE,111,4.0,5.0,91,0.00,,,-99.99,76.000000,,2013-01-28 18:22:00,
2013-01-28 11:33:00,23.0,20.0,-100.00,ESE,112,5.0,6.0,91,0.00,,,-99.99,38.000000,,2013-01-28 18:33:00,
2013-01-28 11:42:00,22.0,19.0,-100.00,ESE,109,4.0,5.0,90,0.00,,,-99.99,36.000000,,2013-01-28 18:42:00,
2013-01-28 11:51:00,23.0,22.0,-100.00,ESE,109,3.0,4.0,92,0.00,,,-99.99,76.000000,,2013-01-28 18:51:00,
2013-01-28 12:01:00,25.0,23.0,-100.00,ENE,72,4.0,5.0,91,0.00,,,-99.99,43.000000,,2013-01-28 19:01:00,
2013-01-28 12:11:00,26.0,23.0,-100.00,ESE,104,4.0,4.0,90,0.00,,,-99.99,82.000000,,2013-01-28 19:11:00,
2013-01-28 12:21:00,26.0,24.0,-100.00,ESE,117,4.0,5.0,89,0.04,,,-99.99,75.000000,,2013-01-28 19:21:00,
2013-01-28 12:32:00,27.0,24.0,-100.00,ESE,110,4.0,4.0,87,0.04,,,-99.99,107.000000,,2013-01-28 19:32:00,
2013-01-28 12:42:00,27.0,23.0,-100.00,ESE,102,3.0,4.0,86,0.04,,,-99.99,94.000000,,2013-01-28 19:42:00,
2013-01-28 12:51:00,27.0,23.0,-100.00,East,96,3.0,4.0,87,0.04,,,-99.99,101.000000,,2013-01-28 19:51:00,
2013-01-28 13:02:00,28.0,25.0,-100.00,East,101,2.0,3.0,86,0.04,,,-99.99,125.000000,,2013-01-28 20:02:00,
2013-01-28 13:11:00,29.0,26.0,-100.00,ESE,123,2.0,2.0,87,0.04,,,-99.99,181.000000,,2013-01-28 20:11:00,
2013-01-28 13:21:00,28.0,23.0,-100.00,SE,146,2.0,3.0,81,0.21,,,-99.99,258.000000,,2013-01-28 20:21:00,
2013-01-28 13:32:00,26.0,21.0,-100.00,SSE,150,4.0,6.0,81,0.21,,,-99.99,150.000000,,2013-01-28 20:32:00,
2013-01-28 13:42:00,27.0,22.0,-100.00,WSW,258,3.0,6.0,82,0.21,,,-99.99,132.000000,,2013-01-28 20:42:00,
2013-01-28 13:50:00,26.0,21.0,-100.00,WSW,247,4.0,7.0,81,0.21,,,-99.99,198.000000,,2013-01-28 20:50:00,
2013-01-28 13:52:00,27.0,22.0,-100.00,WSW,258,3.0,6.0,82,0.21,,,-99.99,132.000000,,2013-01-28 20:52:00,
2013-01-28 14:02:00,26.0,22.0,-100.00,WSW,256,3.0,5.0,84,0.21,,,-99.99,336.000000,,2013-01-28 21:02:00,
2013-01-28 14:11:00,26.0,21.0,-100.00,WSW,247,4.0,7.0,81,0.21,,,-99.99,198.000000,,2013-01-28 21:11:00,
2013-01-28 14:21:00,26.0,21.0,-100.00,WSW,247,4.0,7.0,81,0.21,,,-99.99,198.000000,,2013-01-28 21:21:00,
2013-01-28 14:33:00,26.0,21.0,-100.00,WSW,247,4.0,7.0,81,0.21,,,-99.99,198.000000,,2013-01-28 21:33:00,
2013-01-28 14:42:00,26.0,21.0,-100.00,WSW,247,4.0,7.0,81,0.21,,,-99.99,198.000000,,2013-01-28 21:42:00,
2013-01-28 15:23:00,26.0,18.0,-100.00,West,260,3.0,6.0,71,0.03,,,-99.99,94.000000,,2013-01-28 22:23:00,
2013-01-28 15:33:00,26.0,18.0,-100.00,WSW,246,3.0,6.0,70,0.03,,,-99.99,96.000000,,2013-01-28 22:33:00,
2013-01-28 15:42:00,26.0,18.0,-100.00,WSW,248,3.0,5.0,72,0.03,,,-99.99,85.000000,,2013-01-28 22:42:00,
2013-01-28 15:52:00,26.0,18.0,-100.00,WSW,244,3.0,6.0,71,0.03,,,-99.99,79.000000,,2013-01-28 22:52:00,
2013-01-28 16:01:00,26.0,17.0,-100.00,West,261,3.0,6.0,70,0.03,,,-99.99,50.000000,,2013-01-28 23:01:00,
2013-01-28 16:11:00,25.0,17.0,-100.00,West,262,3.0,5.0,71,0.03,,,-99.99,57.000000,,2013-01-28 23:11:00,
2013-01-28 16:21:00,25.0,17.0,-100.00,West,271,3.0,4.0,72,0.00,,,-99.99,64.000000,,2013-01-28 23:21:00,
2013-01-28 16:32:00,25.0,18.0,-100.00,West,275,3.0,4.0,74,0.00,,,-99.99,69.000000,,2013-01-28 23:32:00,
2013-01-28 16:41:00,25.0,18.0,-100.00,WSW,238,4.0,6.0,73,0.00,,,-99.99,64.000000,,2013-01-28 23:41:00,
2013-01-28 16:52:00,26.0,19.0,-100.00,SW,225,3.0,5.0,73,0.00,,,-99.99,64.000000,,2013-01-28 23:52:00,
2013-01-28 17:01:00,27.0,18.0,-100.00,SW,221,2.0,4.0,71,0.00,,,-99.99,122.000000,,2013-01-29 00:01:00,
2013-01-28 17:11:00,26.0,18.0,-100.00,SSW,201,3.0,4.0,71,0.00,,,-99.99,77.000000,,2013-01-29 00:11:00,
2013-01-28 17:21:00,26.0,17.0,-100.00,South,176,2.0,2.0,70,0.00,,,-99.99,48.000000,,2013-01-29 00:21:00,
2013-01-28 17:32:00,25.0,17.0,-100.00,SSE,159,3.0,3.0,73,0.00,,,-99.99,24.000000,,2013-01-29 00:32:00,
2013-01-28 17:41:00,23.0,16.0,-100.00,South,185,3.0,4.0,73,0.00,,,-99.99,29.000000,,2013-01-29 00:41:00,
2013-01-28 17:51:00,23.0,16.0,-100.00,SSW,193,3.0,4.0,73,0.00,,,-99.99,11.000000,,2013-01-29 00:51:00,
2013-01-28 18:01:00,23.0,16.0,-100.00,SW,218,2.0,3.0,75,0.00,,,-99.99,4.000000,,2013-01-29 01:01:00,
2013-01-28 18:11:00,23.0,16.0,-100.00,West,262,1.0,3.0,75,0.00,,,-99.99,1.000000,,2013-01-29 01:11:00,
2013-01-28 18:22:00,23.0,16.0,-100.00,WSW,241,1.0,2.0,76,0.00,,,-99.99,0.000000,,2013-01-29 01:22:00,
2013-01-28 18:31:00,23.0,17.0,-100.00,SW,215,0.0,1.0,78,0.00,,,-99.99,0.000000,,2013-01-29 01:31:00,
2013-01-28 18:42:00,22.0,17.0,-100.00,SSW,207,2.0,3.0,78,0.00,,,-99.99,0.000000,,2013-01-29 01:42:00,
2013-01-28 18:50:00,23.0,18.0,-100.00,SSW,202,3.0,4.0,82,0.00,,,-99.99,0.000000,,2013-01-29 01:50:00,
2013-01-28 18:52:00,22.0,17.0,-100.00,SSW,210,2.0,2.0,80,0.00,,,-99.99,0.000000,,2013-01-29 01:52:00,
2013-01-28 19:01:00,23.0,18.0,-100.00,SW,221,0.0,1.0,82,0.00,,,-99.99,0.000000,,2013-01-29 02:01:00,
2013-01-28 19:11:00,23.0,18.0,-100.00,SSW,202,3.0,4.0,82,0.00,,,-99.99,0.000000,,2013-01-29 02:11:00,
2013-01-28 19:21:00,23.0,18.0,-100.00,SSW,202,3.0,4.0,82,0.00,,,-99.99,0.000000,,2013-01-29 02:21:00,
2013-01-28 19:32:00,23.0,18.0,-100.00,SSW,202,3.0,4.0,82,0.00,,,-99.99,0.000000,,2013-01-29 02:32:00,
2013-01-28 19:41:00,23.0,18.0,-100.00,SSW,202,3.0,4.0,82,0.00,,,-99.99,0.000000,,2013-01-29 02:41:00,
2013-01-28 20:22:00,23.0,17.0,-100.00,SSE,159,7.0,10.0,78,0.00,,,-99.99,0.000000,,2013-01-29 03:22:00,
2013-01-28 20:32:00,23.0,16.0,-100.00,SSE,166,7.0,10.0,74,0.00,,,-99.99,0.000000,,2013-01-29 03:32:00,
2013-01-28 20:42:00,24.0,16.0,-100.00,South,175,7.0,9.0,71,0.00,,,-99.99,0.000000,,2013-01-29 03:42:00,
2013-01-28 20:53:00,24.0,14.0,-100.00,South,185,5.0,9.0,65,0.00,,,-99.99,0.000000,,2013-01-29 03:53:00,
2013-01-28 21:01:00,24.0,14.0,-100.00,SW,217,4.0,7.0,63,0.00,,,-99.99,0.000000,,2013-01-29 04:01:00,
2013-01-28 21:11:00,23.0,16.0,-100.00,East,97,4.0,6.0,75,0.00,,,-99.99,0.000000,,2013-01-29 04:11:00,
2013-01-28 21:21:00,20.0,13.0,-100.00,ENE,70,4.0,6.0,77,0.00,,,-99.99,0.000000,,2013-01-29 04:21:00,
2013-01-28 21:31:00,19.0,14.0,-100.00,SSE,148,2.0,3.0,79,0.00,,,-99.99,0.000000,,2013-01-29 04:31:00,
2013-01-28 21:41:00,19.0,14.0,-100.00,SE,145,2.0,4.0,78,0.00,,,-99.99,0.000000,,2013-01-29 04:41:00,
2013-01-28 21:51:00,19.0,13.0,-100.00,South,177,3.0,4.0,76,0.00,,,-99.99,0.000000,,2013-01-29 04:51:00,
2013-01-28 22:03:00,19.0,13.0,-100.00,SSE,157,3.0,4.0,77,0.00,,,-99.99,0.000000,,2013-01-29 05:03:00,
2013-01-28 22:12:00,19.0,13.0,-100.00,SSE,164,3.0,4.0,78,0.00,,,-99.99,0.000000,,2013-01-29 05:12:00,
2013-01-28 22:21:00,19.0,12.0,-100.00,SSE,166,4.0,5.0,76,0.00,,,-99.99,0.000000,,2013-01-29 05:21:00,
2013-01-28 22:31:00,19.0,13.0,-100.00,South,176,4.0,5.0,76,0.00,,,-99.99,0.000000,,2013-01-29 05:31:00,
2013-01-28 22:42:00,20.0,13.0,-100.00,South,174,4.0,6.0,74,0.00,,,-99.99,0.000000,,2013-01-29 05:42:00,
2013-01-28 22:52:00,20.0,12.0,-100.00,South,170,3.0,4.0,71,0.00,,,-99.99,0.000000,,2013-01-29 05:52:00,
2013-01-28 23:01:00,19.0,11.0,-100.00,South,170,4.0,6.0,70,0.00,,,-99.99,0.000000,,2013-01-29 06:01:00,
2013-01-28 23:11:00,19.0,11.0,-100.00,SSE,160,3.0,4.0,71,0.00,,,-99.99,0.000000,,2013-01-29 06:11:00,
2013-01-28 23:21:00,19.0,12.0,-100.00,SSE,156,4.0,5.0,72,0.00,,,-99.99,0.000000,,2013-01-29 06:21:00,
2013-01-28 23:31:00,19.0,12.0,-100.00,SSE,166,4.0,5.0,73,0.00,,,-99.99,0.000000,,2013-01-29 06:31:00,
2013-01-28 23:41:00,20.0,12.0,-100.00,SSE,154,3.0,5.0,71,0.00,,,-99.99,0.000000,,2013-01-29 06:41:00,
2013-01-28 23:50:00,17.0,10.0,-100.00,South,172,4.0,6.0,71,0.00,,,-99.99,0.000000,,2013-01-29 06:50:00,
2013-01-28 23:52:00,19.0,11.0,-100.00,SSE,162,4.0,4.0,71,0.00,,,-99.99,0.000000,,2013-01-29 06:52:00,